DateTimeUTC,F1_A11,F1_S11,BsB_S11,BsG_S11,BsR_S11,BbsB_S11,BbsG_S11,BbsR_S11,BaB_A11,BaG_A11,BaR_A11,Tu_S11,T_S11,Uu_S11,U_S11,P_S11,T1_A11
2021-06-05T10:00:00Z,00000200,20000000,,,,,,,-000.04,0000.30,0000.16,17.0,23.7,07.0,04.6,0675.9,30.9
2021-06-05T10:01:00Z,00000200,20000000,,,,,,,0000.10,-000.32,-000.20,17.0,23.8,07.0,04.6,0675.9,30.9
2021-06-05T10:02:00Z,00000200,20000000,,,,,,,0000.02,0000.10,0000.16,17.0,23.8,07.0,04.6,0675.9,30.9
2021-06-05T10:03:00Z,00000200,60000000,,,,,,,0000.28,0000.31,0000.37,17.0,23.8,07.0,04.6,0675.9,30.9
2021-06-05T10:04:00Z,00000200,40000000,0001.03,0001.09,0000.40,0000.29,-000.19,0000.10,0000.39,0000.08,0000.26,17.2,23.6,07.0,04.7,0676.8,30.9
2021-06-05T10:05:00Z,00000200,00000000,0001.58,0000.91,0000.78,0000.41,0000.17,0000.27,0000.37,0000.17,-000.03,17.2,23.6,07.0,04.7,0676.9,30.9
2021-06-05T10:06:00Z,00000200,00000000,0001.29,0000.65,0000.12,0000.87,0000.12,0000.08,0000.39,0000.76,0000.28,17.3,23.6,07.0,04.7,0676.9,30.9
2021-06-05T10:07:00Z,00000200,00000000,0000.47,0000.75,0000.30,0000.42,0000.03,0000.07,0000.39,0000.06,0000.19,17.3,23.6,07.0,04.8,0676.9,30.9
2021-06-05T10:08:00Z,00000200,00000000,0001.26,0000.90,0000.29,0000.00,0000.25,-000.02,0000.41,0000.47,0000.68,17.3,23.6,07.2,04.9,0676.9,30.9
2021-06-05T10:09:00Z,00000200,00000000,0000.45,0000.87,0000.40,0000.64,-000.13,0000.04,0000.35,0000.56,-000.08,17.3,23.6,07.4,05.0,0676.9,30.9
2021-06-05T10:10:00Z,00000200,00000000,0001.11,0000.89,-000.04,0000.48,0000.00,0000.11,0000.32,0000.32,0000.73,17.3,23.6,07.4,05.0,0677.0,30.9
2021-06-05T10:11:00Z,00000200,00000000,0001.29,0000.62,0000.51,0000.44,0000.02,0000.21,0000.59,0000.26,0000.01,17.3,23.6,07.4,05.0,0677.0,30.9
2021-06-05T10:12:00Z,00000200,00000000,0001.43,0000.88,0000.63,0000.48,-000.05,0000.05,0000.17,0000.46,0000.25,17.3,23.6,07.4,05.0,0677.0,30.9
2021-06-05T10:13:00Z,00000200,00000000,0000.92,0000.95,0000.38,-000.30,-000.30,0000.15,0000.69,0000.38,0000.67,17.3,23.6,07.4,05.0,0677.0,30.9
2021-06-05T10:14:00Z,00000200,00000000,0001.92,0000.78,0000.12,0000.51,0000.11,-000.04,0000.33,0000.15,-000.16,17.3,23.6,07.4,05.0,0677.0,30.9
2021-06-05T10:15:00Z,00000200,00000000,0001.11,0000.52,0000.36,0000.47,-000.07,0000.03,0000.30,0000.61,0000.10,17.4,23.6,07.5,05.1,0677.0,30.9
2021-06-05T10:16:00Z,00000200,00000000,0000.64,0000.90,0000.35,0000.15,0000.40,0000.33,0000.31,0000.08,0000.56,17.3,23.6,07.6,05.1,0677.0,30.9
2021-06-05T10:17:00Z,00000200,00000000,0001.14,0000.78,0000.58,0000.30,0000.23,0000.27,0000.27,0000.49,0000.07,17.4,23.6,07.5,05.1,0677.0,30.9
2021-06-05T10:18:00Z,00000200,00000000,0001.15,0000.65,0000.47,-000.48,0000.21,-000.03,0000.43,0000.36,0000.24,17.4,23.7,07.5,05.1,0677.0,30.9
2021-06-05T10:19:00Z,00000200,00000000,0000.48,0000.83,0000.44,0000.23,0000.04,0000.20,0000.19,0000.31,0000.08,17.4,23.6,07.6,05.1,0677.0,30.9
2021-06-05T10:20:00Z,00000200,00000000,0001.31,0000.80,0000.18,0000.48,-000.10,0000.29,0000.58,-000.15,0000.42,17.4,23.6,07.5,05.1,0677.0,30.9
2021-06-05T10:21:00Z,00000200,00000000,0000.99,0000.75,0000.41,-000.09,0000.32,0000.10,0000.41,0000.87,0000.38,17.4,23.6,07.5,05.1,0677.0,30.9
2021-06-05T10:22:00Z,00000200,00000000,0001.10,0000.73,0000.05,0000.34,0000.12,0000.01,0000.32,0000.25,0000.27,17.4,23.6,07.5,05.1,0677.0,30.9
2021-06-05T10:23:00Z,00000200,00000000,0000.38,0000.90,0000.47,-000.17,-000.09,0000.30,0000.49,0000.68,0000.52,17.4,23.7,07.5,05.1,0677.0,30.9
2021-06-05T10:24:00Z,00000200,00000000,0000.27,0000.66,0000.07,-000.07,0000.03,-000.02,0000.37,0000.33,0000.32,17.4,23.7,07.5,05.1,0677.0,30.9
2021-06-05T10:25:00Z,00000200,00000000,0001.07,0001.03,0000.52,0001.12,-000.03,0000.06,0000.67,0000.45,0000.26,17.4,23.7,07.6,05.2,0677.0,30.9
2021-06-05T10:26:00Z,00000200,00000000,0001.11,0000.57,0000.43,0000.28,0000.05,-000.01,0000.18,0000.19,0000.05,17.4,23.7,07.7,05.3,0677.0,30.9
2021-06-05T10:27:00Z,00000200,00000000,0001.55,0000.84,0000.20,0000.24,-000.03,0000.17,0000.64,0000.55,0000.64,17.4,23.7,07.7,05.3,0677.0,30.9
2021-06-05T10:28:00Z,00000200,00000000,0000.60,0000.77,0000.54,0001.11,0000.07,-000.17,0000.19,0000.24,0000.09,17.5,23.7,07.9,05.4,0677.0,30.9
2021-06-05T10:29:00Z,00000200,00000000,0001.05,0000.99,0000.26,0000.17,0000.11,-000.17,0000.34,0000.42,-000.01,17.5,23.7,07.8,05.3,0677.0,30.9
2021-06-05T10:30:00Z,00000200,00000000,0001.25,0000.89,0000.30,0000.21,0000.17,0000.10,0000.14,0000.54,0000.56,17.5,23.7,07.7,05.3,0677.0,30.9
2021-06-05T10:31:00Z,00000200,00000000,0001.15,0000.69,0000.16,0000.60,0000.20,-000.06,0000.76,0000.08,0000.32,17.5,23.7,07.8,05.3,0677.0,30.9
2021-06-05T10:32:00Z,00000200,00000000,0001.31,0000.79,0000.14,0000.12,0000.06,-000.11,0000.84,0000.92,0000.32,17.5,23.7,07.9,05.4,0677.0,30.9
2021-06-05T10:33:00Z,00000200,00000000,0001.58,0000.67,0000.37,0000.67,-000.08,0000.15,0000.02,0000.19,0000.29,17.5,23.7,08.0,05.4,0676.9,30.9
2021-06-05T10:34:00Z,00000200,00000000,0000.94,0000.66,0000.11,0000.47,-000.03,-000.23,0000.61,0000.33,0000.29,17.5,23.7,08.0,05.4,0677.0,30.9
2021-06-05T10:35:00Z,00000200,00000000,0000.94,0000.59,0000.24,0000.27,-000.09,-000.06,0000.53,0000.37,0000.54,17.5,23.7,08.1,05.5,0677.0,30.9
2021-06-05T10:36:00Z,00000200,00000000,0000.83,0001.04,0000.37,0000.69,0000.06,-000.15,0000.27,0000.45,0000.33,17.5,23.7,08.1,05.6,0677.0,30.9
2021-06-05T10:37:00Z,00000200,00000000,0001.07,0000.84,0000.28,0000.37,-000.12,0000.27,0000.23,0000.51,0000.27,17.5,23.7,08.1,05.5,0677.0,30.9
2021-06-05T10:38:00Z,00000200,00000000,0001.23,0000.78,0000.20,0000.14,0000.33,0000.17,0000.52,0000.16,0000.10,17.6,23.7,08.2,05.6,0677.0,30.9
2021-06-05T10:39:00Z,00000200,00000000,0001.48,0000.96,0000.44,0000.30,0000.01,0000.08,0000.21,0000.44,0000.09,17.6,23.7,08.1,05.6,0677.0,30.9
2021-06-05T10:40:00Z,00000200,00000000,0000.92,0001.01,0000.33,0000.01,0000.15,-000.14,0000.51,0000.20,0000.46,17.6,23.8,08.1,05.6,0677.0,30.9
2021-06-05T10:41:00Z,00000200,00000000,0000.99,0000.88,0000.39,0000.43,0000.12,0000.15,0000.84,0000.44,0000.23,17.6,23.7,08.2,05.6,0677.0,30.9
2021-06-05T10:42:00Z,00000200,00000000,0001.22,0000.64,0000.27,0000.49,0000.14,0000.23,0000.01,0000.13,0000.47,17.6,23.8,08.4,05.7,0677.0,30.9
2021-06-05T10:43:00Z,00000200,00000000,0001.30,0000.85,0000.20,0000.31,0000.22,0000.20,0000.51,0000.98,0000.27,17.6,23.8,08.3,05.7,0677.0,30.9
2021-06-05T10:44:00Z,00000200,00000000,0001.20,0000.76,0000.35,0000.07,0000.08,0000.02,0000.40,0000.01,0000.15,17.6,23.8,08.3,05.7,0677.0,30.9
2021-06-05T10:45:00Z,00000200,00000000,0001.10,0001.03,0000.44,0000.33,0000.01,0000.01,0000.67,0000.59,0000.58,17.6,23.8,08.4,05.7,0676.9,30.9
2021-06-05T10:46:00Z,00000200,00000000,0001.80,0000.79,0000.45,0000.15,0000.04,0000.01,0000.47,0000.29,0000.11,17.6,23.8,08.4,05.7,0676.9,30.9
2021-06-05T10:47:00Z,00000200,00000000,0001.45,0000.67,0000.22,0000.46,0000.15,-000.04,-000.08,0000.50,0000.24,17.6,23.8,08.3,05.7,0676.9,30.9
2021-06-05T10:48:00Z,00000200,00000000,0000.84,0000.74,0000.36,0000.38,-000.06,-000.24,0000.60,0000.07,0000.20,17.7,23.8,08.3,05.7,0676.9,30.9
2021-06-05T10:49:00Z,00000200,00000000,0001.46,0000.60,0000.37,0000.02,0000.04,0000.19,0000.33,0000.40,0000.02,17.7,23.8,08.3,05.7,0676.9,30.9
2021-06-05T10:50:00Z,00000200,00000000,0000.77,0000.73,0000.18,0000.16,0000.00,-000.01,0000.22,0000.19,0000.20,17.7,23.8,08.3,05.7,0676.9,30.9
2021-06-05T10:51:00Z,00000200,00000000,0001.08,0000.83,0000.18,0000.40,0000.31,-000.07,0000.85,0000.53,0000.59,17.7,23.8,08.4,05.8,0676.9,30.9
2021-06-05T10:52:00Z,00000200,00000000,0000.63,0000.43,0000.31,0000.30,0000.04,0000.21,0000.12,0000.46,0000.24,17.7,23.8,08.6,05.9,0676.9,30.9
2021-06-05T10:53:00Z,00000200,00000000,0001.68,0000.85,0000.29,0000.13,-000.05,-000.03,0000.33,0000.38,0000.27,17.7,23.8,08.6,05.9,0676.9,30.9
2021-06-05T10:54:00Z,00000200,00000000,0000.16,0000.72,0000.28,0000.49,0000.17,0000.16,0000.46,0000.31,0000.25,17.7,23.8,08.5,05.9,0676.9,30.9
2021-06-05T10:55:00Z,00000200,00000000,0001.09,0000.98,-000.02,0000.65,-000.01,0000.42,0000.52,0000.30,0000.15,17.7,23.8,08.6,05.9,0676.9,30.9
2021-06-05T10:56:00Z,00000200,00000000,0001.24,0000.74,0000.32,0000.19,0000.26,-000.06,0000.24,0000.17,0000.54,17.7,23.9,08.6,05.9,0676.9,30.9
2021-06-05T10:57:00Z,00000200,40000000,,,,,,,-000.31,-000.34,-000.36,17.8,23.9,08.6,05.9,0676.9,30.9
2021-06-05T10:58:00Z,00000200,60000000,,,,,,,0000.09,0000.20,0000.20,17.6,24.0,08.3,05.6,0675.9,30.9
2021-06-05T10:59:00Z,00000200,20000000,,,,,,,0000.06,0000.26,0000.00,17.6,24.1,08.2,05.5,0675.9,30.9
